Kearney, NE

7:00 AM CST on February 24, 2018 (GMT -0600)
Kearney Municipal

Weather History for KEAR - February, 2013

Change the Weather History Date:

Friday, February 15, 2013

  Actual Average Record
Temperature  
Mean Temperature 24 °F 28 °F  
Max Temperature 36 °F 40 °F 69 °F (1913)
Min Temperature 12 °F 17 °F -17 °F (1909)
Degree Days  
Heating Degree Days 41 37  
Month to date heating degree days 577  
Since 1 July heating degree days 4471  
Cooling Degree Days 0 0  
Month to date cooling degree days 0  
Year to date cooling degree days 0  
Moisture  
Dew Point 12 °F    
Average Humidity 61    
Maximum Humidity 92    
Minimum Humidity 29    
Precipitation  
Precipitation 0.00 in - 1.07 in (1964)
Sea Level Pressure  
Sea Level Pressure 30.32 in    
Wind  
Wind Speed 11 mph (WNW)    
Max Wind Speed 27 mph    
Max Gust Speed 35 mph    
Visibility 10 miles    
Events      
T = Trace of Precipitation, MM = Missing Value Source: NWS Daily Summary

Daily Weather History Graph

Daily Weather History Graph

Search for Another Location

Airport or City:

Trip Planner

Search our weather history database for the weather conditions in past years. The results will help you decide how hot, cold, wet, or windy it might be!

Date:

Astronomy

Feb. 15, 2013 Rise Set
Actual Time 7:29 AM CST 6:11 PM CST
Civil Twilight 7:01 AM CST 6:39 PM CST
Nautical Twilight 6:29 AM CST 7:11 PM CST
Astronomical Twilight 5:57 AM CST 7:43 PM CST
Moon 10:04 AM CST (2/15) No Moon Set
Length of Visible Light 11h 37m
Length of Day
10h 41m
Waxing Crescent, 30% of the Moon is Illuminated
Feb 15
Waxing Crescent
Feb 17
First Quarter
Feb 25
Full
Mar 4
Last Quarter
Mar 11
New

Hourly Weather History & Observations

Time (CST) Temp. Windchill Dew Point Humidity Pressure Visibility Wind Dir Wind Speed Gust Speed Precip Events Conditions
12:15 AM 19.4 °F 11.5 °F 14.0 °F 80% 30.32 in 10.0 mi NW 5.8 mph - N/A   Clear
12:35 AM 15.8 °F 6.1 °F 12.2 °F 86% 30.33 in 10.0 mi NW 6.9 mph - N/A   Clear
12:55 AM 17.6 °F 6.4 °F 15.8 °F 93% 30.33 in 10.0 mi NW 9.2 mph - N/A   Mostly Cloudy
1:15 AM 19.4 °F 8.6 °F 14.0 °F 80% 30.33 in 10.0 mi NNW 9.2 mph - N/A   Overcast
1:35 AM 19.4 °F 7.9 °F 15.8 °F 86% 30.32 in 10.0 mi NNW 10.4 mph - N/A   Partly Cloudy
1:55 AM 19.4 °F 10.4 °F 15.8 °F 86% 30.32 in 10.0 mi NNW 6.9 mph - N/A   Clear
2:15 AM 19.4 °F 12.8 °F 15.8 °F 86% 30.32 in 10.0 mi NNW 4.6 mph - N/A   Clear
2:35 AM 17.6 °F 9.3 °F 12.2 °F 79% 30.33 in 10.0 mi WNW 5.8 mph - N/A   Clear
2:55 AM 15.8 °F 8.6 °F 12.2 °F 86% 30.33 in 10.0 mi NW 4.6 mph - N/A   Clear
3:15 AM 15.8 °F 6.1 °F 10.4 °F 79% 30.34 in 10.0 mi WNW 6.9 mph - N/A   Clear
3:35 AM 14.0 °F 3.9 °F 10.4 °F 86% 30.33 in 10.0 mi West 6.9 mph - N/A   Clear
3:55 AM 15.8 °F 7.2 °F 12.2 °F 86% 30.32 in 10.0 mi West 5.8 mph - N/A   Clear
4:15 AM 14.0 °F 3.9 °F 10.4 °F 86% 30.32 in 10.0 mi West 6.9 mph - N/A   Clear
4:35 AM 15.8 °F 8.6 °F 12.2 °F 86% 30.32 in 10.0 mi WSW 4.6 mph - N/A   Clear
4:55 AM 17.6 °F 9.3 °F 14.0 °F 86% 30.33 in 10.0 mi WSW 5.8 mph - N/A   Clear
5:15 AM 15.8 °F 8.6 °F 12.2 °F 86% 30.33 in 10.0 mi WSW 4.6 mph - N/A   Clear
5:35 AM 15.8 °F 7.2 °F 12.2 °F 86% 30.33 in 10.0 mi WSW 5.8 mph - N/A   Clear
5:55 AM 15.8 °F 7.2 °F 12.2 °F 86% 30.33 in 10.0 mi SW 5.8 mph - N/A   Clear
6:15 AM 15.8 °F 5.1 °F 12.2 °F 86% 30.32 in 10.0 mi SW 8.1 mph - N/A   Clear
6:35 AM 15.8 °F 5.1 °F 12.2 °F 86% 30.32 in 10.0 mi SW 8.1 mph - N/A   Clear
6:55 AM 15.8 °F 8.6 °F 14.0 °F 93% 30.33 in 10.0 mi WSW 4.6 mph - N/A   Clear
7:15 AM 15.8 °F 7.2 °F 12.2 °F 86% 30.33 in 10.0 mi WSW 5.8 mph - N/A   Clear
7:35 AM 15.8 °F 7.2 °F 12.2 °F 86% 30.33 in 10.0 mi West 5.8 mph - N/A   Clear
7:55 AM 17.6 °F 12.3 °F 14.0 °F 86% 30.34 in 10.0 mi WSW 3.5 mph - N/A   Clear
8:15 AM 19.4 °F 11.5 °F 15.8 °F 86% 30.34 in 10.0 mi WSW 5.8 mph - N/A   Clear
8:35 AM 19.4 °F 11.5 °F 15.8 °F 86% 30.34 in 10.0 mi SW 5.8 mph - N/A   Clear
8:55 AM 21.2 °F 11.7 °F 15.8 °F 80% 30.34 in 10.0 mi SW 8.1 mph - N/A   Clear
9:15 AM 21.2 °F 11.7 °F 15.8 °F 80% 30.34 in 10.0 mi SW 8.1 mph - N/A   Clear
9:35 AM 23.0 °F 11.7 °F 19.4 °F 86% 30.34 in 10.0 mi WSW 11.5 mph - N/A   Clear
9:55 AM 24.8 °F 14.6 °F 19.4 °F 80% 30.33 in 10.0 mi WSW 10.4 mph - N/A   Clear
10:15 AM 28.4 °F 18.0 °F 19.4 °F 69% 30.32 in 10.0 mi WSW 12.7 mph - N/A   Clear
10:35 AM 28.4 °F 18.5 °F 19.4 °F 69% 30.32 in 10.0 mi West 11.5 mph - N/A   Clear
10:55 AM 30.2 °F 19.8 °F 19.4 °F 64% 30.32 in 10.0 mi West 13.8 mph - N/A   Clear
11:15 AM 32.0 °F 23.0 °F 17.6 °F 55% 30.32 in 10.0 mi West 11.5 mph - N/A   Clear
11:55 AM 33.8 °F 23.2 °F 14.0 °F 44% 30.30 in 10.0 mi West 17.3 mph 21.9 mph N/A   Scattered Clouds
12:15 PM 33.8 °F 24.3 °F 12.2 °F 41% 30.30 in 10.0 mi West 13.8 mph 24.2 mph N/A   Mostly Cloudy
12:35 PM 33.8 °F 23.5 °F 10.4 °F 38% 30.29 in 10.0 mi West 16.1 mph 24.2 mph N/A   Overcast
12:55 PM 33.8 °F 23.2 °F 14.0 °F 44% 30.29 in 10.0 mi West 17.3 mph 23.0 mph N/A   Overcast
1:15 PM 33.8 °F 22.8 °F 12.2 °F 41% 30.28 in 10.0 mi WNW 18.4 mph 26.5 mph N/A   Overcast
1:35 PM 33.8 °F 21.9 °F 10.4 °F 38% 30.27 in 10.0 mi WNW 21.9 mph 25.3 mph N/A   Overcast
1:55 PM 35.6 °F 25.9 °F 6.8 °F 30% 30.27 in 10.0 mi WNW 16.1 mph 28.8 mph N/A   Mostly Cloudy
2:15 PM 35.6 °F 23.0 °F 8.6 °F 33% 30.27 in 10.0 mi NW 27.6 mph 35.7 mph N/A   Mostly Cloudy
2:35 PM 35.6 °F 23.4 °F 6.8 °F 30% 30.27 in 10.0 mi NW 25.3 mph 33.4 mph N/A   Mostly Cloudy
2:55 PM 33.8 °F 21.0 °F 6.8 °F 32% 30.27 in 10.0 mi NW 25.3 mph 34.5 mph N/A   Scattered Clouds
3:15 PM 33.8 °F 20.8 °F 8.6 °F 35% 30.28 in 10.0 mi NW 26.5 mph 35.7 mph N/A   Partly Cloudy
3:35 PM 33.8 °F 21.9 °F 8.6 °F 35% 30.29 in 10.0 mi NW 21.9 mph 29.9 mph N/A   Scattered Clouds
3:55 PM 32.0 °F 19.8 °F 8.6 °F 38% 30.29 in 10.0 mi NW 20.7 mph 29.9 mph N/A   Mostly Cloudy
4:15 PM 30.2 °F 16.8 °F 8.6 °F 40% 30.30 in 10.0 mi NW 23.0 mph 31.1 mph N/A   Mostly Cloudy
4:35 PM 32.0 °F 19.5 °F 12.2 °F 44% 30.30 in 10.0 mi NNW 21.9 mph 28.8 mph N/A   Overcast
4:55 PM 30.2 °F 15.9 °F 10.4 °F 44% 30.31 in 10.0 mi NNW 26.5 mph 32.2 mph N/A   Overcast
5:15 PM 30.2 °F 17.1 °F 10.4 °F 44% 30.32 in 10.0 mi NNW 21.9 mph 28.8 mph N/A   Overcast
5:35 PM 28.4 °F 15.1 °F 10.4 °F 47% 30.32 in 10.0 mi NNW 20.7 mph 26.5 mph N/A   Scattered Clouds
5:55 PM 28.4 °F 15.1 °F 8.6 °F 43% 30.33 in 10.0 mi NNW 20.7 mph 28.8 mph N/A   Mostly Cloudy
6:15 PM 26.6 °F 13.8 °F 6.8 °F 43% 30.33 in 10.0 mi NNW 17.3 mph 23.0 mph N/A   Overcast
6:35 PM 26.6 °F 15.7 °F 6.8 °F 43% 30.33 in 10.0 mi NNW 12.7 mph - N/A   Scattered Clouds
6:55 PM 24.8 °F 15.3 °F 6.8 °F 46% 30.33 in 10.0 mi NNW 9.2 mph - N/A   Clear
7:15 PM 24.8 °F 15.3 °F 8.6 °F 50% 30.33 in 10.0 mi NNW 9.2 mph - N/A   Clear
7:35 PM 23.0 °F 15.8 °F 8.6 °F 54% 30.33 in 10.0 mi NNW 5.8 mph - N/A   Clear
7:55 PM 21.2 °F 12.6 °F 8.6 °F 58% 30.34 in 10.0 mi NW 6.9 mph - N/A   Clear
8:15 PM 21.2 °F 12.6 °F 8.6 °F 58% 30.34 in 10.0 mi NW 6.9 mph - N/A   Clear
8:35 PM 19.4 °F 10.4 °F 8.6 °F 63% 30.34 in 10.0 mi NW 6.9 mph - N/A   Clear
8:55 PM 19.4 °F 11.5 °F 8.6 °F 63% 30.33 in 10.0 mi NW 5.8 mph - N/A   Clear
9:15 PM 17.6 °F 10.7 °F 8.6 °F 68% 30.34 in 10.0 mi NNW 4.6 mph - N/A   Clear
9:35 PM 17.6 °F 9.3 °F 8.6 °F 68% 30.34 in 10.0 mi NW 5.8 mph - N/A   Clear
9:55 PM 15.8 °F 6.1 °F 8.6 °F 73% 30.34 in 10.0 mi NW 6.9 mph - N/A   Clear
10:15 PM 15.8 °F 6.1 °F 8.6 °F 73% 30.34 in 10.0 mi NW 6.9 mph - N/A   Clear
10:35 PM 15.8 °F 8.6 °F 10.4 °F 79% 30.34 in 10.0 mi NW 4.6 mph - N/A   Clear
10:55 PM 15.8 °F 7.2 °F 8.6 °F 73% 30.32 in 10.0 mi NW 5.8 mph - N/A   Clear
11:15 PM 15.8 °F 10.2 °F 8.6 °F 73% 30.31 in 10.0 mi NNW 3.5 mph - N/A   Clear
11:35 PM 14.0 °F 8.2 °F 8.6 °F 79% 30.31 in 10.0 mi NNW 3.5 mph - N/A   Clear
11:55 PM 12.2 °F 2.9 °F 6.8 °F 79% 30.31 in 10.0 mi WNW 5.8 mph - N/A   Clear